COSMOS 1275 DEB, 42151

Orbit data source: Space-Track

COSMOS 1275 DEB, 42151 is space debris in LEO originally from a launch on Thu, 04 Jun 1981 UTC launched from the Plesetsk Missile And Space Complex (PKMTR). Debris objects in space refer to the collection of defunct objects orbiting the Earth. Examples of debris include non-operational satellites, rocket bodies, and fragments generated from explosions, collisions, or faulty payload assembly.

Loading next visibility...
Identifier
42151, 1981-053RP
Orbit
LEO
Country
Flag of CISCIS
Related business
Manufacturer
Unknown
Mission
Spacecraft
Bus & Motor
Unknown
Mass
Unknown
Launch date (UTC)
1981-06-04 (45 years ago)
Launch vehicle
Unknown
Launch site
Plesetsk Missile And Space Complex (PKMTR)
Object type
Payload
Rocket body
Debris
Shape & HBR
Unknown shape, 0.1 m
Radar Cross Section
Small (<0.1 m²)

Expand to show TLE details & history
Last TLE update: 2 months ago

TLE from 2 months ago
0 COSMOS 1275 DEB
1 42151U 81053RP  26032.45352034  .00001398  00000-0  12110-2 0  9997
2 42151  82.9336  73.9161 0088411 123.7246 302.3858 13.83796341613701
Epoch: 2026-02-01T10:53Z
TLE epoch observation values (Epoch: 2026-02-01T10:53:04.157Z)
Latitude
64.40945°
Longitude
153.90651°
Altitude
927.26 km
Speed
7.412 km/s
True Right ascension
05h 55m 20s
True Declination
64° 16' 42"
Sunlit
Object was in full shadow at epoch
Visualization orbit readout
Latitude
Unknown
Longitude
Unknown
Altitude
Unknown
Speed
Unknown
Apparent Right ascension
Unknown
Apparent Declination
Unknown
Sunlit
N/A
Visualization observer readout
Local Sidereal Time
19:59:16
Azimuth
Unknown
Elevation
Unknown
Doppler factor
Unknown
Orbital elements
Apogee altitude
1,012.357 km
Perigee altitude
882.822 km
Semi-major axis
7,325.726 km
Eccentricity
0.00884
Inclination
82.9336°
RAAN
73.9161°
Arg. of periapsis
123.7246°
True anomaly
301.5252°
Mean anomaly
302.3858°
Eccentric anomaly
301.95601°
Mean motion
3.46152 °/min
Orbital period
104 mins
BSTAR
0.001211
Loading maneuver chart data...
Computing Atmospheric mass density...
Loading historical data...
Loading historical data...
Loading historical data...
Loading historical data...
Loading historical data...
Loading historical data...
Loading historical data...

Documentation

Showing up to 5 results
|